User: anonymous   Login
Location: Unspecified
(0.0000°N, 0.0000°E)
Time: 18:57:39
(UTC+02:00)
Language:

Cosmos 1300 - Orbit

View from above orbital plane
View from above orbital plane
View from above satellite
View from above satellite

Ground track
Ground track

The orbit data is extracted from the following two-line orbital elements,

1 12785U 81082A   17142.49467958 +.00000551 +00000-0 +26531-4 0  9991
2 12785 082.5037 098.6830 0001665 047.6069 091.1351 15.16691422947719
Epoch (UTC): 22 May 2017 11:52:20
Eccentricity: 0.0001665
inclination: 82.5037°
perigee height: 515 km
apogee height: 517 km
right ascension of ascending node: 98.6830°
argument of perigee: 47.6069°
revolutions per day: 15.16691422
mean anomaly at epoch: 91.1351°
orbit number at epoch: 94771

The dashed part of the orbit path shows where the satellite is in the earth's shadow,  

DLR